[[{"header":{"parameterUnit":"m.s-1","parameterCategory":1,"la1":30.2991,"la2":30.254,"lo1":-89.0895,"lo2":-89.0444,"dy":0.0017,"dx":0.0017,"nx":28,"ny":28,"refTime":"2023-10-20T09:00:00:Z","depth":0,"parameterNumber":2,"parameterNumberName":"U-component_of_WINDS"},"data":[0,0,0,0,0,0,0,0,0,0,0,0,0,0,0,0,0,0,0,0,0,0,0,0,0,0,0,0,0,0,0,0,0,0,0,0,0,0,0,0,0,0,0,0,0,0,0,0,0,0,0,0,0,0,0,0,0,0,0.6759,0.6761,0,0.6933,0.6935,0.6937,0.6974,0.6973,0.6972,0.6971,0.7154,0.716,0.7166,0,0,0,0,0,0,0,0,0,0,0,0,0,0.6463,0.6468,0.6758,0.6761,0.6763,0.6933,0.6935,0.6937,0.6975,0.6973,0.6972,0.697,0.7152,0.7159,0.7166,0,0,0,0,0,0,0,0,0,0,0,0,0,0.661,0.647,0.6758,0.6802,0.6807,0.6932,0.6935,0.6938,0.6975,0.6973,0.6971,0.6969,0.7149,0.7158,0.7167,0.7262,0,0,0.7195,0.7199,0,0,0,0,0,0,0,0,0.6602,0.6621,0.6793,0.6799,0.6806,0.693,0.6898,0.7047,0.6976,0.6912,0.6971,0.6968,0.7081,0.7096,0.7133,0.7271,0.7279,0.7196,0.7201,0.7205,0.7208,0,0,0,0,0,0,0,0.6591,0.6613,0.6828,0.6796,0.6803,0.6815,0.6833,0.6926,0.7005,0.6917,0.692,0.694,0.7084,0.7124,0.7137,0.7281,0.7196,0.7204,0.7209,0.7213,0.7509,0.7511,0,0,0,0,0,0,0.6573,0.6605,0.6822,0.6833,0.6697,0.6821,0.6842,0.6892,0.7004,0.7019,0.6941,0.6941,0.7109,0.7127,0.7144,0.7264,0.7205,0.7214,0.7219,0.7506,0.7509,0.7512,0,0,0,0,0,0,0.6566,0.6592,0.6815,0.672,0.6749,0.6828,0.6884,0.6896,0.6936,0.7023,0.7037,0.6967,0.7108,0.7131,0.7233,0.7271,0.7218,0.7226,0.7504,0.7507,0.7511,0.7504,0,0,0,0,0,0,0.6558,0.6589,0.6625,0.672,0.6754,0.6899,0.6886,0.6901,0.6951,0.6952,0.7051,0.7065,0.7109,0.7219,0.7242,0.7283,0.7233,0.7501,0.7505,0.7509,0.7501,0.7507,0.7512,0,0,0,0,0,0.6547,0.6616,0.6626,0.6652,0.68,0.6901,0.6921,0.6968,0.6954,0.6992,0.7048,0.7062,0.7263,0.7229,0.7255,0.7299,0.7498,0.7504,0.7509,0.7499,0.7506,0.7512,0,0,0,0,0,0,0.6524,0.6629,0.6642,0.6744,0.6813,0.6907,0.6956,0.6973,0.7049,0.7047,0.7104,0.7126,0.7225,0.7272,0.7233,0.7398,0.738,0.7391,0.7364,0.7371,0.7376,0.7363,0.7241,0,0,0,0,0,0.653,0.6603,0.6692,0.6773,0.6807,0.6875,0.6921,0.6952,0.7027,0.7057,0.712,0.7193,0.7273,0.7325,0.7403,0.7508,0.7532,0.7552,0.7557,0.7561,0.757,0.7631,0.7642,0.753,0.753,0.7529,0,0,0.6545,0.6612,0.6654,0.677,0.6828,0.6903,0.69,0.6979,0.7036,0.7069,0.7169,0.7218,0.7304,0.7408,0.7458,0.7451,0.7606,0.7568,0.757,0.7577,0.7638,0.7649,0.7658,0.7533,0.7533,0.7532,0,0,0.6611,0.6667,0.6742,0.68,0.6887,0.6932,0.695,0.7042,0.7076,0.7177,0.7204,0.7273,0.7409,0.747,0.7518,0.7609,0.7626,0.7633,0.7661,0.772,0.7729,0.7738,0.7771,0.7783,0.7642,0.7642,0.7642,0,0.6618,0.6731,0.6779,0.6858,0.6909,0.6941,0.7019,0.7073,0.7182,0.7217,0.7208,0.738,0.744,0.756,0.7583,0.762,0.7645,0.7622,0.7724,0.7733,0.7741,0.7774,0.7786,0.7642,0.7642,0.7642,0.7642,0,0.6737,0.6815,0.6866,0.6969,0.7026,0.7103,0.7165,0.7218,0.7244,0.729,0.7394,0.7468,0.7562,0.7593,0.7619,0.7718,0.7711,0.7712,0.7695,0.7751,0.7783,0.7796,0.7642,0.7642,0.7642,0.7642,0,0,0.6792,0.6921,0.6939,0.6987,0.7086,0.7149,0.7229,0.732,0.7365,0.7439,0.7509,0.7624,0.7627,0.7682,0.7716,0.7768,0.7837,0.7763,0.7766,0.7776,0.7953,0.7951,0.7965,0.7849,0.7852,0.7854,0.7946,0,0.687,0.7013,0.7059,0.7179,0.7253,0.7286,0.7357,0.7426,0.7473,0.7544,0.7596,0.7677,0.7673,0.7707,0.776,0.7817,0.7874,0.7811,0.7917,0.792,0.7895,0.7982,0.7981,0.8064,0.7958,0.7961,0.7962,0,0.698,0.7055,0.7182,0.7274,0.7307,0.7369,0.7457,0.7524,0.7605,0.7635,0.7698,0.7728,0.7816,0.7794,0.7917,0.7873,0.7919,0.7955,0.7959,0.7971,0.7945,0.7997,0.8091,0.8104,0.7982,0.7981,0.7979,0,0.7009,0.7142,0.7236,0.7276,0.7384,0.7428,0.7475,0.7554,0.7606,0.7685,0.772,0.7808,0.7856,0.7924,0.7978,0.7957,0.8098,0.8079,0.8127,0.8126,0.8155,0.8153,0.8259,0.8184,0.8183,0.8183,0.8183,0,0.7092,0.7168,0.725,0.7308,0.7396,0.7449,0.7535,0.7585,0.7655,0.7725,0.7759,0.7824,0.7891,0.7966,0.8009,0.8105,0.8127,0.8155,0.8166,0.8153,0.8149,0.8184,0.818,0.8186,0.8186,0.8185,0.8184,0,0.7138,0.7196,0.73,0.7395,0.7421,0.7481,0.7564,0.7622,0.767,0.7758,0.7782,0.7858,0.7948,0.8009,0.8124,0.8153,0.8258,0.8267,0.823,0.8236,0.8281,0.8276,0.8413,0.8435,0.8344,0.8345,0.8345,0,0.7187,0.7247,0.7348,0.7397,0.7444,0.7522,0.7576,0.7632,0.7687,0.7785,0.7832,0.7924,0.8,0.8143,0.821,0.8299,0.8311,0.8353,0.8325,0.831,0.8313,0.8309,0.8317,0.8358,0.8358,0.8359,0.8359,0,0.7269,0.7295,0.737,0.7457,0.752,0.7591,0.7663,0.7701,0.777,0.7831,0.7923,0.7982,0.81,0.8191,0.8287,0.8338,0.8362,0.8368,0.8384,0.8371,0.8348,0.8362,0.8244,0.8364,0.8364,0.8363,0.8363,0.8363,0.7319,0.7375,0.7455,0.7539,0.7598,0.7665,0.7725,0.7781,0.7858,0.7957,0.7986,0.8082,0.8164,0.8295,0.8348,0.8425,0.8422,0.8444,0.845,0.8455,0.8456,0.8335,0.8443,0.8443,0.8443,0.8443,0.8443,0,0.7404,0.7457,0.7534,0.7633,0.7699,0.7714,0.7794,0.785,0.7933,0.8007,0.8081,0.8188,0.8278,0.8352,0.8445,0.8493,0.8506,0.8516,0.8513,0.8525,0.8453,0.8431,0.8504,0.8504,0.8504,0.8504,0.8504,0.8504,0.7455,0.755,0.7586,0.7712,0.7766,0.7859,0.7904,0.7966,0.8026,0.8143,0.8217,0.8264,0.834,0.8439,0.8523,0.8543,0.8576,0.8583,0.8606,0.8537,0.853,0.8524,0.8503,0.859,0.859,0.8672,0.8672,0.8673]},{"header":{"parameterUnit":"m.s-1","parameterCategory":1,"la1":30.2991,"la2":30.254,"lo1":-89.0895,"lo2":-89.0444,"dy":0.0017,"dx":0.0017,"nx":28,"ny":28,"refTime":"2023-10-20T09:00:00:Z","depth":0,"parameterNumber":3,"parameterNumberName":"V-component_of_WINDS"},"data":[0,0,0,0,0,0,0,0,0,0,0,0,0,0,0,0,0,0,0,0,0,0,0,0,0,0,0,0,0,0,0,0,0,0,0,0,0,0,0,0,0,0,0,0,0,0,0,0,0,0,0,0,0,0,0,0,0,0,3.5994,3.5997,0,3.6225,3.6228,3.623,3.6246,3.6244,3.6241,3.6239,3.6471,3.6479,3.6488,0,0,0,0,0,0,0,0,0,0,0,0,0,3.5563,3.5571,3.5994,3.5997,3.6,3.6225,3.6228,3.6231,3.6247,3.6244,3.6241,3.6238,3.6468,3.6478,3.6489,0,0,0,0,0,0,0,0,0,0,0,0,0,3.5768,3.5573,3.5993,3.6035,3.6041,3.6224,3.6228,3.6232,3.6248,3.6244,3.624,3.6236,3.6465,3.6477,3.649,3.6646,0,0,3.6529,3.6535,0,0,0,0,0,0,0,0,3.5756,3.5783,3.6026,3.6032,3.6039,3.6203,3.6161,3.6371,3.6248,3.6169,3.6239,3.6234,3.6385,3.6404,3.6456,3.6657,3.6667,3.6531,3.6538,3.6544,3.6547,0,0,0,0,0,0,0,3.5742,3.5773,3.6085,3.6029,3.6038,3.6041,3.6066,3.6201,3.6295,3.6176,3.6177,3.6205,3.6388,3.6443,3.6461,3.6671,3.653,3.6542,3.6549,3.6555,3.7013,3.7017,0,0,0,0,0,0,3.572,3.5762,3.6078,3.6092,3.5885,3.6052,3.6079,3.6154,3.6294,3.6312,3.6208,3.6205,3.6423,3.6446,3.6469,3.6663,3.6544,3.6556,3.6563,3.7008,3.7014,3.7019,0,0,0,0,0,0,3.5711,3.5748,3.6068,3.5928,3.5969,3.6063,3.6147,3.6161,3.6217,3.6318,3.6335,3.6247,3.6421,3.6451,3.6603,3.6671,3.6562,3.6573,3.7003,3.701,3.7016,3.705,0,0,0,0,0,0,3.5698,3.5745,3.5806,3.5929,3.5976,3.6199,3.6151,3.6168,3.6239,3.6237,3.636,3.6376,3.642,3.6584,3.6616,3.6687,3.6583,3.6998,3.7006,3.7014,3.7043,3.7057,3.7069,0,0,0,0,0,3.5683,3.5805,3.5809,3.5847,3.6055,3.6203,3.623,3.6279,3.6245,3.6307,3.6372,3.6373,3.6658,3.6599,3.6635,3.6711,3.6993,3.7004,3.7014,3.7037,3.7054,3.7068,0,0,0,0,0,0,3.5686,3.5822,3.5828,3.5993,3.6087,3.6206,3.6285,3.6295,3.6399,3.6393,3.6448,3.6476,3.6626,3.6683,3.6615,3.687,3.6822,3.684,3.6828,3.6844,3.6857,3.684,3.6594,0,0,0,0,0,3.5706,3.5817,3.5929,3.6064,3.6111,3.619,3.6256,3.6286,3.6385,3.6424,3.6501,3.6595,3.6706,3.6778,3.6886,3.7051,3.7078,3.7121,3.7134,3.7144,3.7159,3.7252,3.7272,3.7052,3.7052,3.7051,0,0,3.5748,3.5836,3.5902,3.6067,3.6143,3.6255,3.6223,3.6343,3.6427,3.6442,3.6591,3.665,3.6759,3.6918,3.6992,3.6971,3.7226,3.7157,3.7164,3.7174,3.7264,3.7285,3.7303,3.7059,3.7057,3.7056,0,0,3.5883,3.5961,3.6083,3.616,3.6276,3.6328,3.6357,3.6476,3.6516,3.6667,3.668,3.678,3.697,3.7048,3.7112,3.7277,3.7282,3.731,3.7378,3.7467,3.7485,3.75,3.7561,3.7582,3.7325,3.7325,3.7325,0,3.5921,3.6093,3.6144,3.6265,3.6337,3.6357,3.6481,3.6552,3.6697,3.6746,3.672,3.696,3.7034,3.7213,3.7254,3.7304,3.734,3.7297,3.7478,3.7495,3.751,3.7568,3.759,3.7328,3.7327,3.7327,3.7327,0,3.6134,3.6253,3.6337,3.6479,3.656,3.6681,3.675,3.6826,3.6849,3.6903,3.7056,3.7146,3.7273,3.7317,3.734,3.75,3.7483,3.7467,3.742,3.7533,3.7589,3.7611,3.7332,3.7331,3.733,3.7329,0,0,3.6278,3.6447,3.6477,3.6542,3.6672,3.6764,3.6886,3.7013,3.7077,3.7176,3.728,3.7441,3.7427,3.75,3.7531,3.761,3.7737,3.7585,3.7588,3.7611,3.792,3.7932,3.7957,3.774,3.7745,3.7748,3.7911,0,3.6428,3.6649,3.6698,3.6887,3.6998,3.7019,3.7125,3.7216,3.727,3.7371,3.7429,3.7544,3.7516,3.7561,3.7639,3.7705,3.78,3.7693,3.7837,3.7842,3.7811,3.7986,3.8,3.8149,3.7933,3.7937,3.7939,0,3.6634,3.674,3.6941,3.7058,3.7106,3.7201,3.7321,3.7417,3.752,3.7554,3.7636,3.7659,3.7787,3.7732,3.7908,3.7835,3.7896,3.7937,3.7944,3.7961,3.7899,3.8008,3.8198,3.8221,3.7974,3.7971,3.7969,0,3.6721,3.6913,3.7059,3.7113,3.7253,3.7319,3.738,3.748,3.7553,3.7657,3.7705,3.7821,3.7886,3.7975,3.8029,3.7984,3.8201,3.8151,3.8233,3.8232,3.8279,3.8276,3.8482,3.8316,3.8316,3.8315,3.8315,0,3.6885,3.7007,3.71,3.719,3.7327,3.7382,3.7516,3.7577,3.7665,3.7767,3.779,3.7884,3.7949,3.8052,3.8095,3.8235,3.8263,3.8294,3.8304,3.8293,3.8289,3.8335,3.8327,3.8321,3.832,3.8319,3.8318,0,3.7005,3.7073,3.7233,3.7352,3.7385,3.7481,3.7583,3.767,3.7725,3.7852,3.7885,3.7971,3.8093,3.8156,3.8307,3.8336,3.8495,3.8497,3.8461,3.8465,3.8544,3.8537,3.8789,3.8826,3.8633,3.8635,3.8636,0,3.7107,3.7202,3.7332,3.7402,3.7465,3.7578,3.7653,3.7711,3.7788,3.7913,3.7985,3.8109,3.8212,3.8406,3.8481,3.8598,3.8605,3.8685,3.8622,3.8609,3.8608,3.8602,3.8613,3.8696,3.8698,3.87,3.8701,0,3.7279,3.7308,3.7417,3.7538,3.7627,3.7724,3.782,3.7876,3.7949,3.8034,3.8161,3.8241,3.8397,3.852,3.8643,3.8704,3.8715,3.872,3.8746,3.8736,3.8712,3.8728,3.8493,3.8714,3.8713,3.8712,3.8711,3.8711,3.7395,3.7481,3.7587,3.7707,3.7785,3.7875,3.7963,3.803,3.8137,3.827,3.8297,3.8431,3.8532,3.8698,3.8763,3.8868,3.8851,3.8888,3.8897,3.8906,3.8911,3.8693,3.889,3.889,3.889,3.889,3.8889,0,3.757,3.764,3.775,3.7884,3.7979,3.7983,3.8089,3.8168,3.8286,3.838,3.8481,3.8627,3.8747,3.8831,3.8953,3.9021,3.9029,3.9051,3.9047,3.9062,3.8918,3.8885,3.9042,3.9042,3.9042,3.9042,3.9042,3.9042,3.7673,3.782,3.7861,3.8046,3.8114,3.8248,3.8309,3.8391,3.8467,3.8629,3.873,3.8784,3.8875,3.9003,3.9113,3.9135,3.9179,3.9201,3.9223,3.9087,3.9071,3.9056,3.9025,3.921,3.921,3.9358,3.9359,3.936]}]]